| time (UTC) | temp F | wind direction | speed MPH | gust MPH | rain 1hr in | rain 24hr in | rain mn in | humidity % | barometer mb |
| 20260902043047 | 78 | 0 | 0.0 | 2.0 | 0.00 | 0.00 | 0.00 | 80 | 1020.1 |
| 20260902041550 | 78 | 0 | 0.0 | 1.0 | 0.00 | 0.00 | 0.00 | 80 | 1020.3 |
| 20260902040054 | 78 | 0 | 0.0 | 1.0 | 0.00 | 0.00 | 0.00 | 80 | 1020.2 |
| 20260902034547 | 78 | 319 | 0.0 | 1.0 | 0.00 | 0.00 | 0.00 | 82 | 1020.3 |
| 20260902033049 | 78 | 0 | 0.0 | 0.0 | 0.00 | 0.00 | 0.00 | 81 | 1020.2 |
| 20260902031541 | 79 | 0 | 0.0 | 0.0 | 0.00 | 0.00 | 0.00 | 80 | 1020.2 |
| 20260902030045 | 79 | 0 | 0.0 | 1.0 | 0.00 | 0.00 | 0.00 | 78 | 1020.1 |
| 20260902024555 | 79 | 0 | 0.0 | 2.0 | 0.00 | 0.00 | 0.00 | 79 | 1020.2 |
| 20260902023045 | 79 | 313 | 0.0 | 2.0 | 0.00 | 0.00 | 0.00 | 79 | 1020.1 |
| 20260902021539 | 79 | 0 | 0.0 | 2.0 | 0.00 | 0.00 | 0.00 | 79 | 1020.0 |
| 20260902020053 | 79 | 0 | 0.0 | 2.0 | 0.00 | 0.00 | 0.00 | 79 | 1020.0 |
| 20260902014546 | 79 | 0 | 0.0 | 0.0 | 0.00 | 0.00 | 0.00 | 80 | 1019.7 |
| 20260902013043 | 79 | 0 | 0.0 | 2.0 | 0.00 | 0.00 | 0.00 | 78 | 1019.5 |
| 20260902011541 | 80 | 0 | 0.0 | 1.0 | 0.00 | 0.00 | 0.00 | 77 | 1019.5 |
| 20260902010046 | 80 | 0 | 0.0 | 1.0 | 0.00 | 0.00 | 0.00 | 76 | 1019.4 |
| 20260902004548 | 81 | 0 | 0.0 | 0.0 | 0.00 | 0.00 | 0.00 | 71 | 1019.2 |
| 20260902003044 | 81 | 0 | 0.0 | 0.0 | 0.00 | 0.00 | 0.00 | 71 | 1019.1 |
| 20260902001550 | 82 | 0 | 0.0 | 0.0 | 0.00 | 0.00 | 0.00 | 71 | 1019.2 |
| 20260902000044 | 82 | 0 | 0.0 | 0.0 | 0.00 | 0.00 | 0.00 | 71 | 1019.1 |
| 20260901234553 | 83 | 0 | 0.0 | 0.0 | 0.00 | 0.00 | 0.00 | 69 | 1019.2 |
| 20260901233043 | 85 | 0 | 0.0 | 0.0 | 0.00 | 0.00 | 0.00 | 67 | 1019.2 |
| 20260901231553 | 86 | 0 | 0.0 | 0.0 | 0.00 | 0.00 | 0.00 | 66 | 1019.4 |
| 20260901224541 | 88 | 313 | 0.0 | 2.0 | 0.00 | 0.00 | 0.00 | 59 | 1019.4 |
| 20260901223050 | 89 | 0 | 0.0 | 2.0 | 0.00 | 0.00 | 0.00 | 57 | 1019.6 |
| 20260901221542 | 91 | 302 | 0.0 | 2.0 | 0.00 | 0.00 | 0.00 | 52 | 1019.5 |
| 20260901220106 | 91 | 0 | 1.0 | 3.0 | 0.00 | 0.00 | 0.00 | 51 | 1019.5 |
| 20260901214552 | 91 | 280 | 0.0 | 2.0 | 0.00 | 0.00 | 0.00 | 51 | 1019.3 |
| 20260901213046 | 92 | 306 | 0.0 | 2.0 | 0.00 | 0.00 | 0.00 | 47 | 1019.3 |
| 20260901211540 | 92 | 360 | 0.0 | 3.0 | 0.00 | 0.00 | 0.00 | 47 | 1019.4 |
| 20260901210047 | 92 | 322 | 0.0 | 3.0 | 0.00 | 0.00 | 0.00 | 47 | 1019.5 |
| 20260901204546 | 92 | 333 | 0.0 | 4.0 | 0.00 | 0.00 | 0.00 | 47 | 1019.6 |
| 20260901203054 | 92 | 346 | 1.0 | 4.0 | 0.00 | 0.00 | 0.00 | 48 | 1019.8 |
| 20260901201553 | 92 | 0 | 0.0 | 4.0 | 0.00 | 0.00 | 0.00 | 48 | 1019.7 |
| 20260901200047 | 92 | 286 | 1.0 | 4.0 | 0.00 | 0.00 | 0.00 | 49 | 1019.8 |
| 20260901194547 | 92 | 318 | 1.0 | 3.0 | 0.00 | 0.00 | 0.00 | 49 | 1020.0 |
| 20260901193042 | 92 | 20 | 1.0 | 2.0 | 0.00 | 0.00 | 0.00 | 49 | 1020.0 |
| 20260901191601 | 92 | 63 | 1.0 | 3.0 | 0.00 | 0.00 | 0.00 | 48 | 1020.1 |
| 20260901190046 | 92 | 352 | 1.0 | 4.0 | 0.00 | 0.00 | 0.00 | 49 | 1020.3 |
| 20260901184607 | 92 | 296 | 2.0 | 5.0 | 0.00 | 0.00 | 0.00 | 48 | 1020.3 |
| 20260901183049 | 94 | 331 | 0.0 | 2.0 | 0.00 | 0.00 | 0.00 | 46 | 1020.5 |
| 20260901181553 | 93 | 329 | 1.0 | 3.0 | 0.00 | 0.00 | 0.00 | 49 | 1020.4 |
| 20260901180041 | 93 | 52 | 1.0 | 3.0 | 0.00 | 0.00 | 0.00 | 46 | 1020.5 |
| 20260901174555 | 93 | 256 | 0.0 | 4.0 | 0.00 | 0.00 | 0.00 | 49 | 1020.6 |
| 20260901173045 | 92 | 318 | 1.0 | 3.0 | 0.00 | 0.00 | 0.00 | 51 | 1020.8 |
| 20260901171543 | 93 | 271 | 1.0 | 3.0 | 0.00 | 0.00 | 0.00 | 50 | 1020.9 |
| 20260901170041 | 93 | 306 | 0.0 | 3.0 | 0.00 | 0.00 | 0.00 | 50 | 1021.0 |
| 20260901164546 | 91 | 0 | 1.0 | 5.0 | 0.00 | 0.00 | 0.00 | 49 | 1021.3 |
| 20260901163043 | 92 | 26 | 1.0 | 2.0 | 0.00 | 0.00 | 0.00 | 50 | 1021.4 |
| 20260901161600 | 91 | 352 | 0.0 | 2.0 | 0.00 | 0.00 | 0.00 | 54 | 1021.7 |
| 20260901160106 | 89 | 21 | 1.0 | 3.0 | 0.00 | 0.00 | 0.00 | 54 | 1021.7 |
| 20260901154547 | 90 | 26 | 0.0 | 2.0 | 0.00 | 0.00 | 0.00 | 57 | 1021.9 |
| 20260901153048 | 89 | 271 | 0.0 | 2.0 | 0.00 | 0.00 | 0.00 | 58 | 1022.2 |
| 20260901151540 | 88 | 0 | 0.0 | 2.0 | 0.00 | 0.00 | 0.00 | 63 | 1022.3 |
| 20260901150046 | 88 | 306 | 1.0 | 2.0 | 0.00 | 0.00 | 0.00 | 62 | 1022.4 |
| 20260901144548 | 86 | 81 | 1.0 | 2.0 | 0.00 | 0.00 | 0.00 | 62 | 1022.4 |
| 20260901143056 | 85 | 304 | 0.0 | 2.0 | 0.00 | 0.00 | 0.00 | 67 | 1022.5 |
| 20260901141543 | 83 | 296 | 0.0 | 3.0 | 0.00 | 0.00 | 0.00 | 72 | 1022.5 |
| 20260901140053 | 81 | 213 | 0.0 | 2.0 | 0.00 | 0.00 | 0.00 | 75 | 1022.4 |
| 20260901134546 | 79 | 0 | 0.0 | 0.0 | 0.00 | 0.00 | 0.00 | 77 | 1022.3 |
| 20260901133043 | 79 | 0 | 0.0 | 0.0 | 0.00 | 0.00 | 0.00 | 81 | 1022.4 |
| 20260901131542 | 77 | 0 | 0.0 | 0.0 | 0.00 | 0.00 | 0.00 | 82 | 1022.4 |
| 20260901130046 | 76 | 0 | 0.0 | 0.0 | 0.00 | 0.00 | 0.00 | 84 | 1022.2 |
| 20260901124542 | 75 | 0 | 0.0 | 0.0 | 0.00 | 0.00 | 0.00 | 87 | 1022.3 |
| 20260901123106 | 73 | 315 | 0.0 | 2.0 | 0.00 | 0.00 | 0.00 | 89 | 1022.3 |
| 20260901121544 | 72 | 0 | 0.0 | 2.0 | 0.00 | 0.00 | 0.00 | 91 | 1022.1 |
| 20260901120056 | 71 | 306 | 0.0 | 2.0 | 0.00 | 0.00 | 0.00 | 93 | 1021.9 |
| 20260901114545 | 71 | 0 | 0.0 | 2.0 | 0.00 | 0.00 | 0.00 | 94 | 1022.0 |
| 20260901113042 | 71 | 0 | 0.0 | 2.0 | 0.00 | 0.00 | 0.00 | 94 | 1021.6 |
| 20260901111549 | 70 | 0 | 0.0 | 2.0 | 0.00 | 0.00 | 0.00 | 94 | 1021.6 |
| 20260901110043 | 70 | 306 | 0.0 | 2.0 | 0.00 | 0.00 | 0.00 | 94 | 1021.5 |
| 20260901104543 | 70 | 306 | 0.0 | 2.0 | 0.00 | 0.00 | 0.00 | 94 | 1021.3 |
| 20260901103043 | 70 | 0 | 0.0 | 0.0 | 0.00 | 0.00 | 0.00 | 94 | 1021.2 |
| 20260901101540 | 70 | 0 | 0.0 | 0.0 | 0.00 | 0.00 | 0.00 | 94 | 1020.9 |
| 20260901100047 | 70 | 0 | 0.0 | 2.0 | 0.00 | 0.00 | 0.00 | 94 | 1021.0 |
| 20260901094540 | 71 | 0 | 0.0 | 2.0 | 0.00 | 0.00 | 0.00 | 94 | 1020.8 |
| 20260901093043 | 71 | 0 | 0.0 | 2.0 | 0.00 | 0.00 | 0.00 | 94 | 1020.7 |
| 20260901091540 | 71 | 0 | 0.0 | 2.0 | 0.00 | 0.00 | 0.00 | 94 | 1020.6 |
| 20260901090037 | 71 | 0 | 0.0 | 0.0 | 0.00 | 0.00 | 0.00 | 94 | 1020.7 |
| 20260901084540 | 71 | 0 | 0.0 | 0.0 | 0.00 | 0.00 | 0.00 | 94 | 1020.7 |
| 20260901083041 | 71 | 0 | 0.0 | 2.0 | 0.00 | 0.00 | 0.00 | 94 | 1020.7 |
| 20260901081550 | 71 | 0 | 0.0 | 0.0 | 0.00 | 0.00 | 0.00 | 94 | 1020.9 |
| 20260901080049 | 71 | 0 | 0.0 | 0.0 | 0.00 | 0.00 | 0.00 | 94 | 1020.8 |
| 20260901074549 | 71 | 0 | 0.0 | 0.0 | 0.00 | 0.00 | 0.00 | 94 | 1021.0 |
| 20260901073050 | 71 | 0 | 0.0 | 0.0 | 0.00 | 0.00 | 0.00 | 93 | 1021.1 |
| 20260901071548 | 71 | 0 | 0.0 | 0.0 | 0.00 | 0.00 | 0.00 | 93 | 1021.2 |
| 20260901070051 | 72 | 0 | 0.0 | 0.0 | 0.00 | 0.00 | 0.00 | 93 | 1021.5 |
| 20260901064545 | 72 | 0 | 0.0 | 0.0 | 0.00 | 0.00 | 0.00 | 93 | 1021.2 |
| 20260901063105 | 72 | 0 | 0.0 | 0.0 | 0.00 | 0.00 | 0.00 | 93 | 1021.4 |
| 20260901061558 | 72 | 0 | 0.0 | 0.0 | 0.00 | 0.00 | 0.00 | 92 | 1021.4 |
| 20260901060057 | 72 | 0 | 0.0 | 0.0 | 0.00 | 0.00 | 0.00 | 92 | 1021.5 |
| 20260901054547 | 73 | 0 | 0.0 | 0.0 | 0.00 | 0.00 | 0.00 | 92 | 1021.4 |
| 20260901053106 | 73 | 0 | 0.0 | 0.0 | 0.00 | 0.00 | 0.00 | 91 | 1021.7 |
| 20260901051548 | 73 | 0 | 0.0 | 0.0 | 0.00 | 0.00 | 0.00 | 92 | 1021.7 |
| 20260901050048 | 73 | 0 | 0.0 | 0.0 | 0.00 | 0.00 | 0.00 | 92 | 1021.7 |
| 20260901044543 | 73 | 0 | 0.0 | 0.0 | 0.00 | 0.00 | 0.00 | 92 | 1021.5 |